Flag for Switzerland Weather past 2 weeks in Vernier, Geneva, Switzerland

57 °F

Broken clouds.

Feels Like: 55 °F
Forecast: 38 / 50 °F
Wind: 12 mph from Southwest

Location: Geneva Cointrin Airport

Current Time: Oct 13, 2015 at 3:05:42 PM

Latest Report: Oct 13, 2015 at 2:20 PM

Visibility: N/A

Pressure: 29.92 "Hg

Humidity: 72%

Dew point: 48 °F

Location of VernierLocation

Historic Weather in Vernier — Graph


Vernier temperature yesterday

Maximum temperature yesterday: 59 °F (at 1:20 PM)
Minimum temperature yesterday: 45 °F (at 2:20 AM)
Average temperature yesterday: 52 °F

Past Weeks' High & Low Weather Summary

High64 °F (Oct 4, 2:50 PM)100% (Oct 6, 1:50 AM)30.33 "Hg (Oct 6, 1:50 AM)
Low41 °F (Sep 30, 4:50 AM)45% (Sep 28, 5:20 PM)29.77 "Hg (Oct 6, 7:50 AM)
Average54 °F77%30.05 "Hg
* Reported Sep 28 1:20 PM — Oct 13 1:50 PM, Vernier, Weather by CustomWeather, © 2015

Note: Actual official high and low records may vary slightly from our data, if they occured in-between our weather recording intervals... More about our weather records


Vernier weather history for previous 24 hours

Time TempWeatherWind HumidityBarometerVisibility
1:50 PM
Tue, Oct 13
57 °FBroken clouds.13 mph72%29.92 "HgN/A
1:20 PM59 °FBroken clouds.10 mph68%29.92 "HgN/A
12:50 PM57 °FPartly sunny.7 mph77%29.92 "HgN/A
12:20 PM57 °FPartly sunny.7 mph77%29.92 "HgN/A
11:50 AM55 °FBroken clouds.9 mph82%29.92 "HgN/A
11:20 AM55 °FBroken clouds.6 mph82%29.92 "HgN/A
10:50 AM55 °FBroken clouds.2 mph82%29.92 "HgN/A
10:20 AM54 °FBroken clouds.3 mph82%29.92 "HgN/A
9:50 AM54 °FPartly sunny.1 mph82%29.92 "HgN/A
9:20 AM54 °FBroken clouds.2 mph82%29.92 "HgN/A
8:50 AM52 °FBroken clouds.2 mph88%29.92 "HgN/A
8:20 AM52 °FPartly cloudy.2 mph88%29.92 "HgN/A
7:50 AM52 °FMostly cloudy.1 mph88%29.92 "HgN/A
7:20 AM52 °FPartly cloudy.2 mph88%29.92 "HgN/A
6:50 AM50 °FPartly cloudy.3 mph94%29.92 "HgN/A
6:20 AM50 °FPassing clouds.2 mph94%29.92 "HgN/A
5:20 AM50 °FPassing clouds.2 mph94%29.92 "Hg6 mi
4:50 AM50 °FPassing clouds.3 mph94%29.92 "HgN/A
4:20 AM50 °FPassing clouds.2 mph94%29.92 "Hg6 mi
3:50 AM50 °FPassing clouds.3 mph94%29.92 "Hg6 mi
2:50 AM50 °FPassing clouds.1 mph94%29.95 "Hg6 mi
2:20 AM50 °FClear.2 mph88%29.95 "Hg6 mi
1:50 AM50 °FClear.2 mph94%29.95 "Hg6 mi
1:20 AM50 °FClear.2 mph94%29.95 "Hg6 mi
12:50 AM50 °FClear.1 mph94%29.95 "Hg6 mi
12:20 AM50 °FClear.2 mph94%29.95 "Hg10 mi
11:50 PM
Mon, Oct 12
50 °FClear.1 mph94%29.95 "Hg10 mi
11:20 PM52 °FClear.1 mph88%29.95 "Hg10 mi
10:50 PM52 °FClear.2 mph88%29.95 "Hg10 mi
10:20 PM52 °FClear.1 mph88%29.95 "Hg10 mi
9:50 PM54 °FClear.2 mph88%29.95 "Hg10 mi
9:20 PM52 °FClear.1 mph88%29.95 "Hg10 mi
8:50 PM52 °FClear.1 mph88%29.95 "Hg10 mi
8:20 PM54 °FPassing clouds.2 mph88%29.95 "HgN/A
7:50 PM55 °FPartly sunny.No wind77%29.95 "HgN/A
7:20 PM55 °FPartly sunny.3 mph77%29.95 "HgN/A
6:50 PM57 °FBroken clouds.1 mph72%29.92 "HgN/A
6:20 PM57 °FBroken clouds.1 mph72%29.92 "HgN/A
5:50 PM57 °FBroken clouds.3 mph72%29.92 "HgN/A
5:20 PM59 °FPartly sunny.3 mph68%29.95 "HgN/A
4:50 PM59 °FPartly sunny.2 mph68%29.92 "HgN/A
3:50 PM59 °FBroken clouds.3 mph68%29.92 "HgN/A
3:20 PM57 °FPartly sunny.2 mph67%29.92 "HgN/A
Weather by CustomWeather, © 2015

See weather overviewHow to use our weather pages